Flag for U.S.A. Weather past 2 weeks in Hialeah, Florida, U.S.A.

Now
79 °F

Passing clouds.


Feels Like: 82 °F
Forecast: 80 / 89 °F
Wind: 5 mph from North

Location: Opa Locka Airport

Current Time: Aug 29, 2015 at 12:06:54 AM

Latest Report: Aug 28, 2015 at 11:04 PM


Visibility: 10 mi

Pressure: 30.08 "Hg

Humidity: 82%

Dew point: 73 °F

Location of HialeahLocation

Historic Weather in Hialeah — Graph

°F

Hialeah temperature yesterday

Maximum temperature yesterday: 92 °F (at 1:53 PM)
Minimum temperature yesterday: 79 °F (at 5:53 AM)
Average temperature yesterday: 85 °F

Past Weeks' High & Low Weather Summary

 TemperatureHumidityPressure
High93 °F (Aug 22, 12:53 PM)96% (Aug 22, 11:53 PM)30.10 "Hg (Aug 22, 11:53 PM)
Low76 °F (Aug 13, 10:01 PM)52% (Aug 27, 3:53 PM)29.88 "Hg (Aug 24, 5:53 PM)
Average84 °F75%29.99 "Hg
* Reported Aug 13 10:01 PM — Aug 28 9:53 PM, Hialeah, Weather by CustomWeather, © 2015

Note: Actual official high and low records may vary slightly from our data, if they occured in-between our weather recording intervals... More about our weather records

Advertising

Hialeah weather history for previous 24 hours

 ConditionsComfort  
Time TempWeatherWind HumidityBarometerVisibility
9:53 PM
Fri, Aug 28
83 °FClear.6 mph77%30.07 "Hg10 mi
8:53 PM83 °FClear.7 mph74%30.03 "Hg10 mi
7:53 PM83 °FPassing clouds.14 mph79%30.01 "Hg10 mi
6:53 PM85 °FSunny.9 mph72%30.00 "Hg10 mi
5:53 PM88 °FSunny.10 mph65%29.98 "Hg10 mi
4:53 PM90 °FScattered clouds.14 mph57%29.97 "Hg10 mi
3:53 PM91 °FSunny.13 mph57%29.96 "Hg10 mi
2:53 PM92 °FSunny.7 mph52%29.98 "Hg10 mi
1:53 PM92 °FSunny.7 mph56%30.00 "Hg10 mi
12:53 PM91 °FPassing clouds.8 mph57%30.02 "Hg10 mi
11:53 AM90 °FSunny.8 mph57%30.03 "Hg10 mi
10:53 AM88 °FSunny.10 mph59%30.03 "Hg10 mi
9:53 AM84 °FScattered clouds.6 mph67%30.02 "Hg10 mi
8:53 AM85 °FThundershowers. Sunny.5 mph75%30.01 "Hg10 mi
7:53 AM82 °FClear.No wind82%30.01 "Hg10 mi
6:53 AM79 °FClear.No wind88%29.98 "Hg10 mi
5:53 AM79 °FClear.No wind88%29.96 "Hg10 mi
4:53 AM80 °FClear.5 mph85%29.95 "Hg10 mi
3:53 AM80 °FClear.3 mph85%29.95 "Hg10 mi
2:53 AM80 °FClear.6 mph85%29.96 "Hg10 mi
1:53 AM81 °FPassing clouds.6 mph79%29.99 "Hg10 mi
12:53 AM80 °FClear.5 mph79%30.00 "Hg10 mi
Weather by CustomWeather, © 2015

See weather overviewHow to use our weather pages